CST,Max TemperatureF,Mean TemperatureF,Min TemperatureF,Max Dew PointF,MeanDew PointF,Min DewpointF,Max Humidity, Mean Humidity, Min Humidity, Max Sea Level PressureIn, Mean Sea Level PressureIn, Min Sea Level PressureIn, Max VisibilityMiles, Mean VisibilityMiles, Min VisibilityMiles, Max Wind SpeedMPH, Mean Wind SpeedMPH, Max Gust SpeedMPH,PrecipitationIn, CloudCover, Events, WindDirDegrees
2012-11-1,83,74,65,72,69,64,94,78,42,30.04,29.98,29.92,12,7,1,9,2,,0.55,6,Rain,57
2012-11-2,82,76,71,73,71,68,94,85,62,30.01,29.97,29.92,11,5,1,10,5,,0.24,7,Rain,90
2012-11-3,85,76,68,74,71,68,94,78,55,30.02,29.97,29.89,12,7,4,12,3,,0.03,5,Rain,36
2012-11-4,83,76,69,74,72,69,100,83,59,29.98,29.92,29.86,7,6,6,5,2,,0.08,6,Rain,345
2012-11-5,82,77,72,75,73,71,100,90,74,29.97,29.92,29.86,12,6,1,6,2,,0.31,6,Rain,209
2012-11-6,82,76,71,75,72,69,100,90,72,30.03,29.96,29.92,10,4,1,9,4,,1.65,7,Rain,243
2012-11-7,77,73,69,72,69,57,94,87,64,30.06,30.01,29.95,10,5,1,9,6,,0.16,8,Rain,173
2012-11-8,75,70,66,70,67,60,99,88,65,30.07,30.03,30.00,12,4,1,64,5,,0.63,7,Rain,188
2012-11-9,78,72,67,72,68,66,94,85,69,30.08,30.02,29.95,6,5,2,12,6,,0.04,7,Rain,136
2012-11-10,77,72,66,72,69,66,100,90,78,30.06,29.98,29.92,7,5,1,9,2,,0.08,7,Rain,84
2012-11-11,82,74,65,73,71,65,94,84,63,30.01,29.97,29.89,12,7,6,12,2,,0.00,4,,296
2012-11-12,84,78,71,73,72,68,95,82,62,30.00,29.96,29.89,10,6,6,12,2,,0.00,4,,34
2012-11-13,82,75,68,73,69,66,94,84,64,30.04,30.00,29.92,12,6,2,12,5,,0.47,5,Rain,121
2012-11-14,82,74,65,73,69,64,100,85,65,30.08,30.02,29.98,9,6,1,8,6,,0.39,6,Rain,212
2012-11-15,79,74,69,72,70,68,100,87,73,30.04,30.01,29.95,9,6,2,9,4,,0.67,6,Rain,224
2012-11-16,82,76,69,72,69,68,94,82,63,30.06,30.02,29.95,12,6,2,10,5,,0.20,5,Rain,246
2012-11-17,79,74,68,70,68,66,94,80,68,30.10,30.05,30.01,12,6,2,10,5,,0.16,6,Rain,206
2012-11-18,80,72,64,70,66,59,94,77,58,30.11,30.06,30.04,12,6,1,12,6,,0.08,4,Rain,211
2012-11-19,77,71,65,68,65,60,83,73,62,30.10,30.04,29.98,10,7,6,8,4,,0.01,6,Rain,203
2012-11-20,76,72,68,68,66,63,94,77,62,30.10,30.02,29.95,10,7,6,9,5,,0.00,7,,200
2012-11-21,72,70,68,70,68,64,100,92,85,30.07,30.03,29.98,12,3,0,9,3,,2.60,8,Rain,208
2012-11-22,83,76,68,73,69,66,100,90,66,30.09,30.03,29.98,9,4,1,8,5,,0.91,6,Rain,172
2012-11-23,82,75,68,72,67,63,94,79,47,30.10,30.05,30.01,10,7,6,8,4,,0.01,6,Rain,81
2012-11-24,82,73,64,66,64,62,94,74,46,30.12,30.06,30.01,12,7,6,9,3,,0.03,5,,317
2012-11-25,81,72,62,72,67,61,94,84,63,30.09,30.04,29.98,12,7,6,4,1,,0.04,4,Rain,73
2012-11-26,81,72,62,75,69,60,94,86,72,30.09,30.04,29.95,12,7,6,4,1,,0.00,6,,23
2012-11-27,80,72,64,75,72,66,94,91,81,30.10,30.04,29.98,10,6,2,5,2,,0.00,7,,208
2012-11-28,75,72,68,73,71,70,94,91,78,30.12,30.06,29.82,7,4,1,9,3,,0.47,8,Rain,104
2012-11-29,79,74,69,75,72,69,96,92,81,30.12,30.07,30.01,6,5,1,7,4,,0.47,7,Rain,226
2012-11-30,81,74,68,73,70,68,94,87,74,30.09,30.03,29.98,9,6,1,6,2,,0.04,7,Rain,230